Regional Weather Roundup
Issued by NWS Sioux Falls, SD

Home | Current Version | Previous Version | Graphics & Text | Print | Product List | Glossary Off
Versions: 1 2 3 4 5 6 7 8 9 10 11 12 13 14 15 16 17 18 19 20 21 22 23 24 25 26 27 28 29 30 31 32 33 34 35 36 37 38 39 40 41 42 43 44 45 46 47 48 49 50

000
ASUS43 KFSD 232110
RWRFSD

WEATHER ROUNDUP FOR SE SOUTH DAKOTA/SW MINNESOTA/NW IOWA
NATIONAL WEATHER SERVICE SIOUX FALLS SD
400 PM CDT SAT SEP 23 2017

NOTE: "FAIR" INDICATES FEW OR NO CLOUDS BELOW 12,000 FEET WITH NO
SIGNIFICANT WEATHER AND OR OBSTRUCTIONS TO VISIBILITY.


SDZ038>040-050-052>070-232200-
SOUTHEAST SOUTH DAKOTA

CITY           SKY/WX    TMP DP  RH WIND       PRES   REMARKS
BROOKINGS      TSTM      64  63  94 E8        29.94F
CHAMBERLAIN    DRIZZLE   55  55 100 NE6       29.95S
HURON          LGT RAIN  55  55 100 N9        29.93F
MADISON        RAIN      64  64 100 SE10      29.93F VSB 3/4
MITCHELL       LGT RAIN  57  56  96 N6        29.92F
SIOUX FALLS    CLOUDY    68  66  93 N10       29.90F THUNDER
WINNER         TSTM      53  52  96 NE8       29.94F FOG
YANKTON        CLOUDY    75  65  70 NE10      29.87F
$$

MNZ071-072-080-081-089-090-097-098-232200-
SOUTHWEST MINNESOTA

CITY           SKY/WX    TMP DP  RH WIND       PRES   REMARKS
FAIRMONT       PTSUNNY   88  68  51 S18       29.92F
JACKSON        MOSUNNY   86  64  48 S14G21    29.92F
LUVERNE        PTSUNNY   82  64  54 S3        29.90F
MARSHALL       CLOUDY    62  57  83 E5        29.94F
MONTEVIDEO     TSTM      59  59 100 CALM      29.95F
PIPESTONE      CLOUDY    64  61  88 NE6       29.94S
REDWOOD FALLS  CLOUDY    67  59  75 N12G22    29.96R
TRACY          CLOUDY    63  59  87 N10       29.96F
WORTHINGTON    CLOUDY    79  72  79 CALM      29.92F
$$

IAZ001>003-012>014-020>022-031-032-NEZ013-014-SDZ071-232200-
NORTHWEST IOWA

CITY           SKY/WX    TMP DP  RH WIND       PRES   REMARKS
CHEROKEE       MOSUNNY   87  65  48 S14       29.90F
DENISON        MOSUNNY   88  66  48 S14G26    29.92F
ESTHERVILLE    PTSUNNY   87  67  51 S13       29.92F
LE MARS        PTSUNNY   86  68  54 S13       29.88F
ORANGE CITY    CLOUDY    90  70  51 S14       29.89F HX  95
SHELDON        MOSUNNY   86  70  58 S9G17     29.88F
SIOUX CITY     PTSUNNY   87  70  56 S14G23    29.87F
SPENCER        SUNNY     89  65  44 S14G24    29.91F
STORM LAKE     MOSUNNY   90  64  43 S16G23    29.92F
$$

ABBREVIATIONS USED IN REMARKS
   TC - TEMPERATURE IN CELSIUS
  WCI - WIND CHILL INDEX
   HX - HEAT INDEX
  VSB - VISIBILITY





USA.gov is the U.S. government's official web portal to all federal, state and local government web resources and services.